EXS71AS EGCC-LGSM

Flight info

Callsign EXS71AS
Flight time N/A
Altitude 35000
Route SANBA N859 HON L15 FINMA DCT CHT DCT ITVIP DCT KONAN DCT KOK DCT KOMOB DCT KRH DCT UTABA DCT MOMUK DCT GEDSO DCT VEKEN DCT KANIN DCT NEMEK DCT KOTOR DCT TUPUS DCT OSLUD DCT MEDUX UM867 KOGAT DCT ERANA UL737 TSL UN130 MES L609 PIPEN Y94 ORMOS
Aircraft B738/M-SDE2E3FGHIRWXY/LB1

Departure

Time 2026-05-07 08:39
Airport Manchester Airport (EGCC)

Arrival

Time N/A
Airport Samos Airport (LGSM)
Time Latitude Longitude Altitude Speed Heading
2026-05-07 08:04 53.36819 -2.28627 254 ft 0 kts 315°
2026-05-07 08:27 53.36818 -2.28626 254 ft 1 kts 315°
2026-05-07 08:27 53.36807 -2.28607 254 ft 3 kts 315°
2026-05-07 08:27 53.36794 -2.28585 254 ft 3 kts 300°
2026-05-07 08:28 53.36791 -2.28569 254 ft 3 kts 231°
2026-05-07 08:28 53.36800 -2.28552 254 ft 1 kts 224°
2026-05-07 08:28 53.36811 -2.28533 254 ft 2 kts 224°
2026-05-07 08:28 53.36815 -2.28527 254 ft 1 kts 224°
2026-05-07 08:31 53.36814 -2.28529 254 ft 2 kts 223°
2026-05-07 08:32 53.36779 -2.28586 254 ft 12 kts 225°
2026-05-07 08:32 53.36706 -2.28706 254 ft 15 kts 224°
2026-05-07 08:32 53.36625 -2.28786 254 ft 13 kts 195°
2026-05-07 08:32 53.36553 -2.28711 254 ft 13 kts 134°
2026-05-07 08:33 53.36488 -2.28602 254 ft 14 kts 135°
2026-05-07 08:33 53.36418 -2.28467 254 ft 16 kts 120°
2026-05-07 08:33 53.36353 -2.28299 254 ft 18 kts 136°
2026-05-07 08:33 53.36266 -2.28152 254 ft 17 kts 134°
2026-05-07 08:34 53.36182 -2.28010 254 ft 17 kts 136°
2026-05-07 08:34 53.36111 -2.27878 254 ft 15 kts 108°
2026-05-07 08:34 53.36084 -2.27717 254 ft 14 kts 104°
2026-05-07 08:34 53.36025 -2.27621 254 ft 13 kts 185°
2026-05-07 08:35 53.35934 -2.27629 254 ft 13 kts 178°
2026-05-07 08:35 53.35846 -2.27638 254 ft 13 kts 185°
2026-05-07 08:35 53.35755 -2.27649 249 ft 15 kts 171°
2026-05-07 08:35 53.35658 -2.27574 245 ft 15 kts 140°
2026-05-07 08:36 53.35578 -2.27464 244 ft 15 kts 141°
2026-05-07 08:36 53.35499 -2.27358 247 ft 14 kts 141°
2026-05-07 08:36 53.35423 -2.27257 246 ft 14 kts 141°
2026-05-07 08:36 53.35342 -2.27189 243 ft 13 kts 178°
2026-05-07 08:37 53.35239 -2.27220 237 ft 17 kts 192°
2026-05-07 08:37 53.35111 -2.27263 227 ft 18 kts 191°
2026-05-07 08:37 53.35025 -2.27301 225 ft 11 kts 210°
2026-05-07 08:37 53.34996 -2.27347 224 ft 0 kts 229°
2026-05-07 08:38 53.34991 -2.27358 224 ft 6 kts 230°
2026-05-07 08:38 53.34832 -2.27684 222 ft 71 kts 231°
2026-05-07 08:38 53.34383 -2.28612 223 ft 133 kts 231°
2026-05-07 08:39 53.33704 -2.30037 335 ft 171 kts 233°
2026-05-07 08:39 53.33011 -2.31556 1179 ft 166 kts 229°
2026-05-07 08:39 53.32256 -2.33133 1749 ft 182 kts 233°
2026-05-07 08:39 53.31894 -2.35305 2076 ft 214 kts 274°
2026-05-07 08:40 53.32268 -2.37793 2587 ft 225 kts 283°
2026-05-07 08:40 53.32661 -2.40350 3153 ft 230 kts 271°
2026-05-07 08:40 53.32313 -2.42934 3563 ft 240 kts 234°
2026-05-07 08:40 53.31000 -2.44664 4118 ft 247 kts 199°
2026-05-07 08:41 53.29299 -2.45198 4765 ft 252 kts 185°
2026-05-07 08:41 53.27533 -2.45222 5012 ft 257 kts 173°
2026-05-07 08:41 53.25872 -2.44071 5204 ft 264 kts 151°
2026-05-07 08:41 53.24268 -2.42545 5968 ft 265 kts 154°
2026-05-07 08:42 53.22638 -2.41078 6736 ft 268 kts 154°
2026-05-07 08:42 53.21001 -2.39627 7433 ft 271 kts 155°
2026-05-07 08:42 53.19330 -2.38154 8186 ft 273 kts 155°
2026-05-07 08:42 53.17643 -2.36676 8906 ft 276 kts 155°
2026-05-07 08:43 53.15933 -2.35183 9606 ft 279 kts 154°
2026-05-07 08:43 53.14203 -2.33669 10296 ft 283 kts 154°
2026-05-07 08:43 53.12406 -2.32102 10530 ft 303 kts 155°
2026-05-07 08:43 53.10471 -2.30420 10705 ft 324 kts 154°
2026-05-07 08:44 53.08421 -2.28635 10993 ft 339 kts 154°
2026-05-07 08:44 53.06309 -2.26795 11527 ft 346 kts 154°
2026-05-07 08:44 53.04162 -2.24925 12194 ft 350 kts 154°
2026-05-07 08:44 53.01998 -2.23044 12897 ft 353 kts 154°
2026-05-07 08:45 52.99811 -2.21146 13565 ft 357 kts 154°
2026-05-07 08:45 52.97567 -2.19202 14195 ft 360 kts 154°
2026-05-07 08:45 52.95344 -2.17277 14861 ft 361 kts 154°
2026-05-07 08:45 52.93134 -2.15365 15454 ft 365 kts 154°
2026-05-07 08:46 52.90845 -2.13387 16042 ft 369 kts 154°
2026-05-07 08:46 52.88589 -2.11439 16632 ft 372 kts 154°
2026-05-07 08:46 52.86286 -2.09452 17258 ft 375 kts 154°
2026-05-07 08:46 52.83964 -2.07451 17881 ft 377 kts 154°
2026-05-07 08:47 52.81625 -2.05439 18445 ft 381 kts 154°
2026-05-07 08:47 52.79266 -2.03412 18946 ft 383 kts 154°
2026-05-07 08:47 52.76891 -2.01373 19455 ft 386 kts 153°
2026-05-07 08:47 52.74498 -1.99320 19897 ft 390 kts 153°
2026-05-07 08:48 52.72083 -1.97252 20398 ft 393 kts 153°
2026-05-07 08:48 52.69650 -1.95171 20910 ft 394 kts 153°
2026-05-07 08:48 52.67213 -1.93088 21472 ft 395 kts 153°
2026-05-07 08:48 52.64765 -1.91000 21984 ft 397 kts 153°
2026-05-07 08:49 52.62305 -1.88904 22440 ft 400 kts 152°
2026-05-07 08:49 52.59821 -1.86790 22877 ft 404 kts 152°
2026-05-07 08:49 52.57314 -1.84659 23279 ft 408 kts 152°
2026-05-07 08:49 52.54786 -1.82513 23676 ft 411 kts 152°
2026-05-07 08:50 52.52238 -1.80354 24058 ft 413 kts 152°
2026-05-07 08:50 52.49674 -1.78183 24442 ft 415 kts 152°
2026-05-07 08:50 52.47103 -1.76009 24776 ft 418 kts 152°
2026-05-07 08:50 52.44503 -1.73812 25080 ft 421 kts 152°
2026-05-07 08:51 52.41889 -1.71608 25420 ft 424 kts 152°
2026-05-07 08:51 52.39259 -1.69394 25749 ft 426 kts 152°
2026-05-07 08:51 52.36652 -1.67059 26090 ft 428 kts 146°
2026-05-07 08:51 52.34277 -1.64122 26412 ft 429 kts 136°
2026-05-07 08:52 52.32190 -1.60636 26752 ft 430 kts 132°
2026-05-07 08:52 52.30142 -1.57062 27094 ft 432 kts 132°
2026-05-07 08:52 52.28080 -1.53469 27415 ft 434 kts 132°
2026-05-07 08:52 52.26005 -1.49876 27735 ft 436 kts 133°
2026-05-07 08:53 52.23912 -1.46283 28051 ft 438 kts 133°
2026-05-07 08:53 52.21803 -1.42683 28333 ft 440 kts 133°
2026-05-07 08:53 52.19678 -1.39073 28621 ft 442 kts 133°
2026-05-07 08:53 52.17547 -1.35460 28916 ft 444 kts 133°
2026-05-07 08:54 52.15402 -1.31831 29214 ft 445 kts 133°
2026-05-07 08:54 52.13979 -1.29426 29458 ft 445 kts 133°
2026-05-07 08:54 52.11145 -1.24642 30057 ft 442 kts 133°
2026-05-07 08:54 52.09019 -1.21057 30441 ft 440 kts 133°
2026-05-07 08:55 52.06897 -1.17483 30748 ft 439 kts 133°
2026-05-07 08:55 52.04772 -1.13909 31023 ft 439 kts 133°
2026-05-07 08:55 52.03336 -1.11499 31222 ft 439 kts 133°
2026-05-07 08:55 52.00499 -1.06823 31578 ft 439 kts 134°
2026-05-07 08:56 51.99025 -1.04476 31765 ft 439 kts 135°
2026-05-07 08:56 51.96776 -1.01123 32085 ft 439 kts 137°
2026-05-07 08:56 51.94492 -0.97847 32390 ft 438 kts 137°
2026-05-07 08:56 51.92202 -0.94599 32629 ft 439 kts 137°
2026-05-07 08:57 51.89903 -0.91335 32817 ft 440 kts 137°
2026-05-07 08:57 51.87597 -0.88045 33099 ft 439 kts 137°
2026-05-07 08:57 51.85320 -0.84784 33426 ft 438 kts 137°
2026-05-07 08:57 51.83075 -0.81563 33707 ft 437 kts 137°
2026-05-07 08:58 51.80803 -0.78302 33940 ft 437 kts 137°
2026-05-07 08:58 51.78528 -0.75037 34091 ft 439 kts 138°
2026-05-07 08:58 51.73931 -0.68459 34410 ft 441 kts 138°
2026-05-07 08:59 51.71633 -0.65178 34666 ft 440 kts 138°
2026-05-07 08:59 51.69349 -0.61920 34864 ft 439 kts 138°
2026-05-07 08:59 51.67053 -0.58652 35003 ft 441 kts 138°
2026-05-07 08:59 51.64787 -0.55317 35056 ft 441 kts 133°
2026-05-07 09:00 51.61352 -0.47228 35076 ft 440 kts 115°
2026-05-07 09:00 51.59304 -0.37952 35073 ft 440 kts 108°
2026-05-07 09:01 51.57427 -0.28585 35084 ft 440 kts 108°
2026-05-07 09:01 51.55513 -0.19227 35083 ft 441 kts 109°
2026-05-07 09:02 51.53560 -0.09860 35081 ft 442 kts 109°
2026-05-07 09:02 51.51590 -0.00497 35078 ft 444 kts 109°
2026-05-07 09:03 51.49602 0.08902 35098 ft 445 kts 109°
2026-05-07 09:03 51.47607 0.18299 35104 ft 446 kts 109°
2026-05-07 09:04 51.45596 0.27727 35099 ft 447 kts 109°
2026-05-07 09:04 51.43577 0.37152 35095 ft 448 kts 109°
2026-05-07 09:05 51.41545 0.46593 35081 ft 448 kts 109°
2026-05-07 09:05 51.39506 0.56020 35071 ft 448 kts 109°
2026-05-07 09:06 51.37458 0.65450 35077 ft 449 kts 110°
2026-05-07 09:06 51.35399 0.74881 35081 ft 448 kts 110°
2026-05-07 09:07 51.33337 0.84290 35078 ft 448 kts 110°
2026-05-07 09:07 51.31282 0.93627 35066 ft 448 kts 110°
2026-05-07 09:08 51.29194 1.03073 35082 ft 448 kts 110°
2026-05-07 09:08 51.27385 1.12525 35085 ft 449 kts 105°
2026-05-07 09:09 51.25891 1.22214 35083 ft 450 kts 104°
2026-05-07 09:09 51.24384 1.31917 35080 ft 451 kts 105°
2026-05-07 09:10 51.22821 1.41608 35079 ft 451 kts 105°
2026-05-07 09:10 51.21229 1.51304 35079 ft 452 kts 105°
2026-05-07 09:11 51.19626 1.61005 35074 ft 453 kts 105°
2026-05-07 09:11 51.18014 1.70710 35074 ft 453 kts 105°
2026-05-07 09:12 51.16394 1.80419 35068 ft 453 kts 105°
2026-05-07 09:12 51.14766 1.90126 35066 ft 453 kts 105°
2026-05-07 09:13 51.13158 1.99827 35069 ft 453 kts 103°
2026-05-07 09:13 51.12450 2.09790 35072 ft 453 kts 95°
2026-05-07 09:14 51.12005 2.19798 35071 ft 453 kts 95°
2026-05-07 09:14 51.11501 2.29786 35064 ft 453 kts 95°
2026-05-07 09:15 51.10949 2.39771 35059 ft 453 kts 96°
2026-05-07 09:15 51.10390 2.49671 35063 ft 452 kts 96°
2026-05-07 09:16 51.09817 2.59694 35064 ft 452 kts 97°
2026-05-07 09:16 51.08235 2.69294 35061 ft 449 kts 116°
2026-05-07 09:17 51.05340 2.78061 35060 ft 448 kts 120°
2026-05-07 09:17 51.02384 2.86702 35071 ft 448 kts 119°
2026-05-07 09:18 50.99430 2.95422 35070 ft 448 kts 119°
2026-05-07 09:18 50.96492 3.04156 35066 ft 449 kts 119°
2026-05-07 09:19 50.93555 3.12884 35065 ft 449 kts 119°
2026-05-07 09:19 50.90609 3.21610 35060 ft 449 kts 119°
2026-05-07 09:20 50.87652 3.30336 35058 ft 449 kts 119°
2026-05-07 09:20 50.84690 3.39044 35060 ft 450 kts 119°
2026-05-07 09:21 50.81718 3.47750 35063 ft 450 kts 119°
2026-05-07 09:21 50.78738 3.56449 35065 ft 450 kts 120°
2026-05-07 09:22 50.75750 3.65143 35070 ft 450 kts 120°
2026-05-07 09:22 50.72757 3.73821 35068 ft 450 kts 120°
2026-05-07 09:23 50.69755 3.82497 35067 ft 451 kts 120°
2026-05-07 09:23 50.66742 3.91173 35065 ft 451 kts 120°
2026-05-07 09:24 50.63728 3.99825 35063 ft 451 kts 120°
2026-05-07 09:24 50.60706 4.08468 35062 ft 450 kts 120°
2026-05-07 09:25 50.57678 4.17099 35071 ft 450 kts 120°
2026-05-07 09:25 50.54647 4.25710 35072 ft 450 kts 120°
2026-05-07 09:26 50.51609 4.34310 35077 ft 450 kts 120°
2026-05-07 09:26 50.48567 4.42896 35077 ft 450 kts 120°
2026-05-07 09:27 50.45539 4.51412 35076 ft 450 kts 120°
2026-05-07 09:28 50.40936 4.64303 35076 ft 450 kts 120°
2026-05-07 09:28 50.37894 4.72785 35062 ft 449 kts 120°
2026-05-07 09:29 50.34826 4.81314 35063 ft 449 kts 120°
2026-05-07 09:29 50.31753 4.89830 35057 ft 449 kts 120°
2026-05-07 09:30 50.28672 4.98337 35053 ft 449 kts 120°
2026-05-07 09:30 50.25586 5.06830 35062 ft 449 kts 120°
2026-05-07 09:31 50.22494 5.15314 35056 ft 450 kts 120°
2026-05-07 09:31 50.19394 5.23794 35055 ft 450 kts 120°
2026-05-07 09:32 50.16285 5.32272 35050 ft 450 kts 120°
2026-05-07 09:32 50.13194 5.40763 35054 ft 451 kts 118°
2026-05-07 09:33 50.10719 5.48051 35056 ft 451 kts 117°
2026-05-07 09:33 50.07830 5.56719 35048 ft 451 kts 117°
2026-05-07 09:34 50.04917 5.65375 35042 ft 451 kts 118°
2026-05-07 09:34 50.01984 5.74002 35042 ft 451 kts 118°
2026-05-07 09:35 49.99035 5.82623 35047 ft 452 kts 118°
2026-05-07 09:35 49.96078 5.91235 35039 ft 452 kts 118°
2026-05-07 09:36 49.93114 5.99840 35038 ft 452 kts 118°
2026-05-07 09:36 49.90145 6.08431 35033 ft 452 kts 118°
2026-05-07 09:37 49.87168 6.17018 35038 ft 452 kts 118°
2026-05-07 09:37 49.84187 6.25589 35039 ft 452 kts 118°
2026-05-07 09:38 49.81199 6.34148 35038 ft 452 kts 118°
2026-05-07 09:38 49.78204 6.42700 35024 ft 452 kts 119°
2026-05-07 09:39 49.75203 6.51241 35030 ft 452 kts 119°
2026-05-07 09:39 49.72217 6.59709 35009 ft 452 kts 119°
2026-05-07 09:40 49.69203 6.68232 35009 ft 452 kts 119°
2026-05-07 09:40 49.66182 6.76743 35017 ft 452 kts 119°
2026-05-07 09:41 49.63151 6.85256 35015 ft 453 kts 119°
2026-05-07 09:41 49.60113 6.93761 35015 ft 453 kts 119°
2026-05-07 09:42 49.57065 7.02264 35017 ft 453 kts 119°
2026-05-07 09:42 49.54010 7.10760 35014 ft 454 kts 119°
2026-05-07 09:43 49.50947 7.19249 35012 ft 454 kts 120°
2026-05-07 09:43 49.48394 7.26303 35016 ft 454 kts 120°
2026-05-07 09:44 49.45318 7.34780 35020 ft 454 kts 120°
2026-05-07 09:44 49.42233 7.43250 35019 ft 455 kts 120°
2026-05-07 09:45 49.39139 7.51721 35009 ft 455 kts 120°
2026-05-07 09:45 49.36037 7.60183 35011 ft 455 kts 120°
2026-05-07 09:46 49.32930 7.68632 35014 ft 455 kts 120°
2026-05-07 09:46 49.29812 7.77085 35017 ft 455 kts 120°
2026-05-07 09:47 49.26689 7.85522 35012 ft 456 kts 120°
2026-05-07 09:47 49.23559 7.93953 35008 ft 455 kts 121°
2026-05-07 09:48 49.20423 8.02372 35011 ft 455 kts 121°
2026-05-07 09:48 49.17279 8.10785 35016 ft 455 kts 121°
2026-05-07 09:49 49.14156 8.19116 35013 ft 455 kts 121°
2026-05-07 09:49 49.11004 8.27500 35010 ft 455 kts 121°
2026-05-07 09:50 49.07848 8.35865 35011 ft 455 kts 121°
2026-05-07 09:50 49.04686 8.44224 35012 ft 455 kts 121°
2026-05-07 09:51 49.01518 8.52571 35006 ft 455 kts 121°
2026-05-07 09:51 48.97780 8.60272 35014 ft 452 kts 137°
2026-05-07 09:52 48.92937 8.66306 35009 ft 450 kts 144°
2026-05-07 09:52 48.87984 8.72140 35020 ft 451 kts 143°
2026-05-07 09:53 48.83046 8.78014 35012 ft 451 kts 143°
2026-05-07 09:53 48.78111 8.83928 35014 ft 452 kts 143°
2026-05-07 09:54 48.73182 8.89836 35013 ft 452 kts 143°
2026-05-07 09:54 48.68240 8.95745 35022 ft 453 kts 143°
2026-05-07 09:55 48.63293 9.01642 35025 ft 453 kts 143°
2026-05-07 09:55 48.58332 9.07539 35027 ft 454 kts 143°
2026-05-07 09:56 48.53361 9.13434 35012 ft 454 kts 144°
2026-05-07 09:56 48.48397 9.19305 35003 ft 453 kts 144°
2026-05-07 09:57 48.43434 9.25160 35005 ft 452 kts 144°
2026-05-07 09:57 48.38485 9.30984 35010 ft 451 kts 144°
2026-05-07 09:58 48.33541 9.36788 34999 ft 450 kts 144°
2026-05-07 09:58 48.28604 9.42572 35017 ft 449 kts 144°
2026-05-07 09:59 48.23751 9.48340 35009 ft 449 kts 142°
2026-05-07 09:59 48.18975 9.54532 35018 ft 450 kts 141°
2026-05-07 10:00 48.14274 9.60709 35016 ft 450 kts 141°
2026-05-07 10:00 48.09547 9.66848 35021 ft 450 kts 141°
2026-05-07 10:01 48.04798 9.72966 35021 ft 451 kts 141°
2026-05-07 10:01 48.00066 9.79042 35023 ft 453 kts 142°
2026-05-07 10:02 47.95281 9.85172 35016 ft 453 kts 142°
2026-05-07 10:02 47.90497 9.91290 35019 ft 453 kts 142°
2026-05-07 10:03 47.85721 9.97403 35024 ft 453 kts 140°
2026-05-07 10:03 47.81773 10.04727 35030 ft 457 kts 123°
2026-05-07 10:04 47.78605 10.12926 35028 ft 457 kts 122°
2026-05-07 10:04 47.75453 10.21126 35025 ft 456 kts 123°
2026-05-07 10:05 47.72271 10.29268 35034 ft 455 kts 123°
2026-05-07 10:05 47.69066 10.37376 35036 ft 455 kts 123°
2026-05-07 10:06 47.65853 10.45463 35031 ft 456 kts 123°
2026-05-07 10:06 47.62626 10.53564 35010 ft 457 kts 124°
2026-05-07 10:07 47.59386 10.61677 35022 ft 457 kts 124°
2026-05-07 10:07 47.56138 10.69787 35008 ft 459 kts 124°
2026-05-07 10:08 47.52878 10.77903 34993 ft 458 kts 124°
2026-05-07 10:08 47.49619 10.85992 34987 ft 458 kts 124°
2026-05-07 10:09 47.46377 10.94014 34986 ft 457 kts 125°
2026-05-07 10:09 47.43111 11.02073 34986 ft 457 kts 125°
2026-05-07 10:10 47.39848 11.10102 34975 ft 455 kts 125°
2026-05-07 10:10 47.36566 11.18150 34987 ft 454 kts 125°
2026-05-07 10:11 47.33323 11.26080 34987 ft 454 kts 125°
2026-05-07 10:11 47.30038 11.34091 34978 ft 453 kts 126°
2026-05-07 10:12 47.26773 11.42028 35005 ft 453 kts 126°
2026-05-07 10:12 47.23521 11.49911 34993 ft 454 kts 126°
2026-05-07 10:13 47.20222 11.57887 34990 ft 454 kts 126°
2026-05-07 10:13 47.16956 11.65760 34987 ft 454 kts 127°
2026-05-07 10:14 47.13658 11.73686 34993 ft 455 kts 127°
2026-05-07 10:14 47.10353 11.81610 35003 ft 456 kts 127°
2026-05-07 10:15 47.07110 11.89694 34977 ft 464 kts 122°
2026-05-07 10:15 47.04260 11.98193 35082 ft 466 kts 121°
2026-05-07 10:15 47.02864 12.02470 35327 ft 465 kts 121°
2026-05-07 10:16 47.01467 12.06733 35569 ft 463 kts 121°
2026-05-07 10:16 47.00063 12.10981 35815 ft 462 kts 121°
2026-05-07 10:16 46.98655 12.15206 36005 ft 462 kts 121°
2026-05-07 10:16 46.97235 12.19436 36219 ft 463 kts 121°
2026-05-07 10:17 46.95812 12.23658 36435 ft 463 kts 121°
2026-05-07 10:17 46.94383 12.27882 36636 ft 462 kts 121°
2026-05-07 10:17 46.92957 12.32094 36837 ft 462 kts 121°
2026-05-07 10:17 46.91529 12.36305 36951 ft 462 kts 121°
2026-05-07 10:18 46.90095 12.40528 36984 ft 465 kts 121°
2026-05-07 10:18 46.87234 12.48934 36978 ft 464 kts 122°
2026-05-07 10:19 46.84363 12.57347 36985 ft 462 kts 121°
2026-05-07 10:19 46.81475 12.65782 36987 ft 461 kts 122°
2026-05-07 10:20 46.78617 12.74098 36946 ft 462 kts 122°
2026-05-07 10:20 46.75735 12.82462 36961 ft 461 kts 122°
2026-05-07 10:21 46.72853 12.90799 36955 ft 460 kts 122°
2026-05-07 10:21 46.69975 12.99097 36966 ft 458 kts 122°
2026-05-07 10:22 46.67093 13.07378 36927 ft 460 kts 122°
2026-05-07 10:22 46.64198 13.15673 36950 ft 460 kts 122°
2026-05-07 10:23 46.61295 13.23969 36942 ft 460 kts 123°
2026-05-07 10:23 46.58395 13.32233 36981 ft 458 kts 123°
2026-05-07 10:24 46.55345 13.40360 36956 ft 455 kts 130°
2026-05-07 10:24 46.51643 13.47778 36956 ft 454 kts 133°
2026-05-07 10:25 46.47901 13.55186 36964 ft 456 kts 131°
2026-05-07 10:25 46.44201 13.62682 36975 ft 458 kts 131°
2026-05-07 10:26 46.40459 13.70162 36981 ft 459 kts 132°
2026-05-07 10:26 46.36676 13.77614 36952 ft 459 kts 132°
2026-05-07 10:27 46.32902 13.85039 36961 ft 457 kts 132°
2026-05-07 10:27 46.29138 13.92439 36965 ft 456 kts 132°
2026-05-07 10:28 46.25383 13.99809 36986 ft 454 kts 132°
2026-05-07 10:28 46.21637 14.07141 36990 ft 453 kts 133°
2026-05-07 10:29 46.17904 14.14429 36998 ft 451 kts 133°
2026-05-07 10:29 46.14174 14.21691 36983 ft 450 kts 133°
2026-05-07 10:30 46.08601 14.32504 36994 ft 450 kts 133°
2026-05-07 10:30 46.04857 14.39746 36974 ft 451 kts 133°
2026-05-07 10:31 46.01106 14.46984 36982 ft 451 kts 133°
2026-05-07 10:31 45.97352 14.54208 36995 ft 451 kts 133°
2026-05-07 10:32 45.93587 14.61436 36993 ft 452 kts 133°
2026-05-07 10:32 45.89821 14.68646 36984 ft 451 kts 133°
2026-05-07 10:33 45.86695 14.74621 36977 ft 449 kts 133°
2026-05-07 10:33 45.82940 14.81779 37004 ft 449 kts 133°
2026-05-07 10:34 45.79176 14.88932 36999 ft 450 kts 134°
2026-05-07 10:34 45.75398 14.96095 37014 ft 451 kts 134°
2026-05-07 10:35 45.71609 15.03262 37005 ft 452 kts 134°
2026-05-07 10:35 45.67817 15.10420 36997 ft 451 kts 134°
2026-05-07 10:36 45.64022 15.17562 37018 ft 451 kts 134°
2026-05-07 10:36 45.60217 15.24706 37011 ft 452 kts 134°
2026-05-07 10:37 45.56414 15.31876 37027 ft 455 kts 132°
2026-05-07 10:37 45.52792 15.39320 37024 ft 458 kts 130°
2026-05-07 10:38 45.49185 15.46824 37018 ft 459 kts 131°
2026-05-07 10:38 45.45561 15.54231 37026 ft 459 kts 131°
2026-05-07 10:39 45.41566 15.61175 37035 ft 449 kts 141°
2026-05-07 10:39 45.37135 15.67427 37004 ft 448 kts 142°
2026-05-07 10:40 45.32726 15.73682 37015 ft 448 kts 141°
2026-05-07 10:40 45.28348 15.79993 37025 ft 448 kts 141°
2026-05-07 10:41 45.23985 15.86289 37015 ft 447 kts 141°
2026-05-07 10:41 45.19747 15.92795 37026 ft 452 kts 136°
2026-05-07 10:42 45.15788 15.99756 37040 ft 454 kts 135°
2026-05-07 10:42 45.11847 16.06772 37027 ft 456 kts 135°
2026-05-07 10:43 45.07864 16.13761 37040 ft 456 kts 135°
2026-05-07 10:43 45.03851 16.20724 37047 ft 458 kts 135°
2026-05-07 10:44 44.99823 16.27677 37019 ft 457 kts 135°
2026-05-07 10:44 44.95806 16.34598 37037 ft 455 kts 135°
2026-05-07 10:45 44.91799 16.41483 37046 ft 453 kts 135°
2026-05-07 10:45 44.87805 16.48330 37041 ft 451 kts 135°
2026-05-07 10:46 44.83825 16.55139 37039 ft 449 kts 135°
2026-05-07 10:46 44.79853 16.61915 37032 ft 448 kts 135°
2026-05-07 10:47 44.75886 16.68668 37044 ft 447 kts 135°
2026-05-07 10:47 44.71916 16.75408 37031 ft 448 kts 135°
2026-05-07 10:48 44.67937 16.82148 37045 ft 448 kts 135°
2026-05-07 10:48 44.63947 16.88890 37031 ft 449 kts 135°
2026-05-07 10:49 44.59952 16.95627 37026 ft 449 kts 135°
2026-05-07 10:49 44.55948 17.02362 37032 ft 449 kts 135°
2026-05-07 10:50 44.51967 17.09043 37039 ft 450 kts 135°
2026-05-07 10:50 44.47928 17.15806 37031 ft 449 kts 135°
2026-05-07 10:51 44.43942 17.22465 37052 ft 449 kts 135°
2026-05-07 10:51 44.39928 17.29152 37058 ft 449 kts 135°
2026-05-07 10:52 44.35903 17.35845 37058 ft 449 kts 135°
2026-05-07 10:52 44.31877 17.42522 37048 ft 450 kts 135°
2026-05-07 10:53 44.27847 17.49192 37060 ft 449 kts 135°
2026-05-07 10:53 44.23819 17.55841 37062 ft 448 kts 135°
2026-05-07 10:54 44.19795 17.62470 37050 ft 447 kts 135°
2026-05-07 10:54 44.15777 17.69074 37068 ft 446 kts 135°
2026-05-07 10:55 44.11764 17.75652 37057 ft 445 kts 135°
2026-05-07 10:55 44.07763 17.82196 37071 ft 444 kts 135°
2026-05-07 10:56 44.03762 17.88727 37079 ft 443 kts 135°
2026-05-07 10:56 43.99751 17.95255 37086 ft 445 kts 135°
2026-05-07 10:57 43.95723 18.01797 37065 ft 447 kts 135°
2026-05-07 10:57 43.91678 18.08354 37075 ft 448 kts 135°
2026-05-07 10:58 43.87624 18.14912 37066 ft 448 kts 135°
2026-05-07 10:58 43.83560 18.21471 37082 ft 449 kts 135°
2026-05-07 10:59 43.79484 18.28030 37068 ft 450 kts 135°
2026-05-07 10:59 43.75405 18.34581 37086 ft 449 kts 135°
2026-05-07 11:00 43.71323 18.41123 37090 ft 449 kts 135°
2026-05-07 11:00 43.67264 18.47614 37079 ft 449 kts 135°
2026-05-07 11:01 43.63171 18.54143 37066 ft 449 kts 135°
2026-05-07 11:01 43.59080 18.60656 37081 ft 449 kts 135°
2026-05-07 11:02 43.54993 18.67149 37077 ft 448 kts 135°
2026-05-07 11:02 43.50916 18.73612 37090 ft 446 kts 135°
2026-05-07 11:03 43.46851 18.80059 37081 ft 445 kts 134°
2026-05-07 11:03 43.42967 18.86682 37097 ft 444 kts 133°
2026-05-07 11:04 43.39156 18.93359 37088 ft 443 kts 133°
2026-05-07 11:04 43.35335 18.99992 37085 ft 442 kts 133°
2026-05-07 11:05 43.31499 19.06589 37108 ft 441 kts 133°
2026-05-07 11:05 43.27654 19.13171 37065 ft 443 kts 133°
2026-05-07 11:06 43.23792 19.19763 37077 ft 444 kts 133°
2026-05-07 11:06 43.19929 19.26348 37088 ft 443 kts 133°
2026-05-07 11:07 43.16054 19.32936 37098 ft 445 kts 133°
2026-05-07 11:07 43.12164 19.39536 37096 ft 446 kts 133°
2026-05-07 11:08 43.08262 19.46141 37092 ft 447 kts 133°
2026-05-07 11:08 43.04347 19.52754 37103 ft 448 kts 133°
2026-05-07 11:09 43.00420 19.59373 37087 ft 449 kts 133°
2026-05-07 11:09 42.96484 19.65992 37097 ft 449 kts 133°
2026-05-07 11:10 42.92543 19.72605 37084 ft 448 kts 134°
2026-05-07 11:10 42.88612 19.79187 37097 ft 447 kts 134°
2026-05-07 11:11 42.84701 19.85719 37096 ft 448 kts 134°
2026-05-07 11:11 42.80751 19.92303 37107 ft 449 kts 134°
2026-05-07 11:12 42.76785 19.98901 37115 ft 451 kts 134°
2026-05-07 11:12 42.72797 20.05514 37116 ft 453 kts 134°
2026-05-07 11:13 42.68790 20.12134 37108 ft 453 kts 134°
2026-05-07 11:13 42.64776 20.18751 37092 ft 454 kts 134°
2026-05-07 11:14 42.60770 20.25347 37107 ft 451 kts 134°
2026-05-07 11:14 42.56786 20.31892 37116 ft 448 kts 134°
2026-05-07 11:15 42.52822 20.38388 37116 ft 446 kts 134°
2026-05-07 11:15 42.48871 20.44849 37135 ft 444 kts 134°
2026-05-07 11:16 42.44923 20.51288 37120 ft 443 kts 134°
2026-05-07 11:16 42.40983 20.57703 37131 ft 444 kts 134°
2026-05-07 11:17 42.37029 20.64126 37142 ft 445 kts 134°
2026-05-07 11:17 42.33053 20.70571 37136 ft 447 kts 134°
2026-05-07 11:18 42.29059 20.77031 37132 ft 449 kts 134°
2026-05-07 11:18 42.25044 20.83513 37139 ft 451 kts 134°
2026-05-07 11:19 42.21003 20.90022 37130 ft 453 kts 134°
2026-05-07 11:19 42.16948 20.96541 37141 ft 454 kts 134°
2026-05-07 11:20 42.12884 21.03061 37139 ft 455 kts 134°
2026-05-07 11:20 42.08634 21.09253 37142 ft 451 kts 140°
2026-05-07 11:21 42.04043 21.14992 37134 ft 450 kts 141°
2026-05-07 11:21 41.99433 21.20694 37124 ft 450 kts 141°
2026-05-07 11:22 41.94862 21.26419 37132 ft 448 kts 141°
2026-05-07 11:22 41.91083 21.31180 37136 ft 447 kts 141°
2026-05-07 11:23 41.86554 21.36885 37146 ft 446 kts 141°
2026-05-07 11:23 41.82022 21.42581 37144 ft 447 kts 141°
2026-05-07 11:24 41.77478 21.48280 37129 ft 447 kts 141°
2026-05-07 11:24 41.72940 21.53961 37144 ft 447 kts 141°
2026-05-07 11:25 41.68398 21.59633 37137 ft 446 kts 141°
2026-05-07 11:25 41.63855 21.65295 37155 ft 446 kts 141°
2026-05-07 11:26 41.59304 21.70955 37147 ft 447 kts 141°
2026-05-07 11:26 41.54742 21.76618 37146 ft 449 kts 141°
2026-05-07 11:27 41.50166 21.82288 37129 ft 449 kts 141°
2026-05-07 11:27 41.45582 21.87956 37149 ft 450 kts 141°
2026-05-07 11:28 41.40988 21.93624 37153 ft 451 kts 141°
2026-05-07 11:28 41.36377 21.99302 37153 ft 452 kts 141°
2026-05-07 11:29 41.31755 22.04982 37163 ft 453 kts 141°
2026-05-07 11:29 41.27115 22.10673 37157 ft 454 kts 141°
2026-05-07 11:30 41.22462 22.16371 37145 ft 455 kts 141°
2026-05-07 11:30 41.17840 22.22019 37163 ft 455 kts 141°
2026-05-07 11:31 41.13075 22.27544 37162 ft 454 kts 144°
2026-05-07 11:31 41.08153 22.32787 37154 ft 454 kts 145°
2026-05-07 11:32 41.00765 22.40626 37147 ft 453 kts 145°
2026-05-07 11:33 40.95864 22.45871 37142 ft 453 kts 145°
2026-05-07 11:33 40.90969 22.51113 37144 ft 453 kts 145°
2026-05-07 11:34 40.86071 22.56347 37156 ft 453 kts 145°
2026-05-07 11:34 40.81168 22.61576 37148 ft 453 kts 145°
2026-05-07 11:35 40.76257 22.66803 37156 ft 454 kts 145°
2026-05-07 11:35 40.71337 22.72028 37139 ft 455 kts 145°
2026-05-07 11:36 40.66407 22.77255 37161 ft 455 kts 145°
2026-05-07 11:36 40.61472 22.82476 37148 ft 455 kts 145°
2026-05-07 11:37 40.56528 22.87696 37159 ft 456 kts 145°
2026-05-07 11:37 40.51569 22.92925 37160 ft 457 kts 145°
2026-05-07 11:38 40.46602 22.98151 37156 ft 458 kts 144°
2026-05-07 11:38 40.41965 23.03953 37166 ft 463 kts 137°
2026-05-07 11:39 40.37579 23.10151 37157 ft 464 kts 136°
2026-05-07 11:39 40.33180 23.16352 37151 ft 464 kts 137°
2026-05-07 11:40 40.28741 23.22507 37157 ft 465 kts 137°
2026-05-07 11:40 40.24299 23.28612 37152 ft 467 kts 137°
2026-05-07 11:41 40.19782 23.34799 37130 ft 467 kts 137°
2026-05-07 11:41 40.15324 23.40898 37134 ft 466 kts 137°
2026-05-07 11:42 40.10842 23.47017 37137 ft 466 kts 137°
2026-05-07 11:42 40.06359 23.53126 37141 ft 466 kts 137°
2026-05-07 11:43 40.01874 23.59227 37137 ft 466 kts 137°
2026-05-07 11:43 39.97380 23.65325 37138 ft 466 kts 137°
2026-05-07 11:44 39.92880 23.71420 37134 ft 466 kts 137°
2026-05-07 11:44 39.88377 23.77508 37116 ft 467 kts 137°
2026-05-07 11:45 39.83862 23.83598 37142 ft 468 kts 137°
2026-05-07 11:45 39.79329 23.89701 37137 ft 470 kts 137°
2026-05-07 11:46 39.74775 23.95819 37135 ft 471 kts 137°
2026-05-07 11:46 39.70207 24.01944 37130 ft 473 kts 137°
2026-05-07 11:47 39.65625 24.08076 37122 ft 473 kts 137°
2026-05-07 11:47 39.61035 24.14205 37130 ft 473 kts 137°
2026-05-07 11:48 39.56447 24.20321 37132 ft 473 kts 137°